User: anonymous   Login
Location: Mentone
(34.5413°N, 85.5351°W)
Time: 21:25:14
(UTC-05:00)
Language:

Centaur AC-72 - Orbit

View from above orbital plane
View from above orbital plane
View from above satellite
View from above satellite

Ground track
Ground track

The orbit data is extracted from the following two-line orbital elements,

1 21907U 92013B   15243.85540894 -.00000028 +00000-0 +00000-0 0  9993
2 21907 018.9999 117.8015 6964432 131.4503 212.1388 02.25609881193414
Epoch (UTC): 31 August 2015 20:31:47
Eccentricity: 0.6964432
inclination: 18.9999°
perigee height: 1076 km
apogee height: 35280 km
right ascension of ascending node: 117.8015°
argument of perigee: 131.4503°
revolutions per day: 2.25609881
mean anomaly at epoch: 212.1388°
orbit number at epoch: 19341

The dashed part of the orbit path shows where the satellite is in the earth's shadow,  

DLR